[[{"header":{"parameterUnit":"m.s-1","parameterCategory":1,"la1":30.2991,"la2":30.254,"lo1":-89.0895,"lo2":-89.0444,"dy":0.0017,"dx":0.0017,"nx":28,"ny":28,"refTime":"2023-08-08T21:00:00:Z","depth":0,"parameterNumber":2,"parameterNumberName":"U-component_of_WINDS"},"data":[0,0,0,0,0,0,0,0,0,0,0,0,0,0,0,0,0,0,0,0,0,0,0,0,0,0,0,0,0,0,0,0,0,0,0,0,0,0,0,0,0,0,0,0,0,0,0,0,0,0,0,0,0,0,0,0,0,0,4.2564,4.2564,0,4.26,4.26,4.26,4.2552,4.255,4.2548,4.2547,4.2583,4.2585,4.2588,0,0,0,0,0,0,0,0,0,0,0,0,0,4.2455,4.2457,4.2564,4.2565,4.2565,4.2599,4.26,4.26,4.2552,4.255,4.2548,4.2546,4.2582,4.2585,4.2588,0,0,0,0,0,0,0,0,0,0,0,0,0,4.2497,4.2458,4.2564,4.2545,4.2544,4.2599,4.26,4.2601,4.2552,4.255,4.2547,4.2545,4.2581,4.2585,4.2588,4.2664,0,0,4.26,4.2602,0,0,0,0,0,0,0,0,4.2495,4.2501,4.2547,4.2546,4.2545,4.2569,4.2574,4.2622,4.2553,4.2549,4.2547,4.2544,4.258,4.2584,4.2596,4.2666,4.2668,4.2601,4.2603,4.2605,4.2606,0,0,0,0,0,0,0,4.2492,4.25,4.2578,4.2548,4.2547,4.2535,4.2538,4.2583,4.2579,4.2549,4.2546,4.2551,4.2579,4.2593,4.2597,4.2668,4.26,4.2604,4.2606,4.2608,4.2803,4.2805,0,0,0,0,0,0,4.2491,4.2497,4.2577,4.2579,4.2513,4.2539,4.2542,4.2564,4.2578,4.2578,4.2553,4.2548,4.2587,4.2592,4.2598,4.2688,4.2604,4.2608,4.261,4.28,4.2803,4.2806,0,0,0,0,0,0,4.2489,4.2499,4.2575,4.2537,4.2546,4.2543,4.2568,4.2566,4.2579,4.2581,4.258,4.2568,4.2585,4.2592,4.2648,4.2689,4.261,4.2613,4.2796,4.2801,4.2805,4.2869,0,0,0,0,0,0,4.2486,4.2498,4.2527,4.2538,4.2548,4.2626,4.257,4.2568,4.2586,4.258,4.2594,4.2594,4.2584,4.2643,4.2652,4.2693,4.2616,4.2793,4.2798,4.2804,4.2863,4.2875,4.2885,0,0,0,0,0,4.2483,4.2544,4.2529,4.2539,4.2584,4.2628,4.2634,4.2621,4.259,4.2619,4.262,4.2594,4.2683,4.2649,4.2659,4.2701,4.279,4.2797,4.2803,4.2859,4.2873,4.2885,0,0,0,0,0,0,4.2537,4.2545,4.2528,4.2595,4.2611,4.262,4.2656,4.2636,4.2661,4.2655,4.2637,4.2641,4.2701,4.2707,4.2669,4.2776,4.2731,4.274,4.277,4.2784,4.2794,4.2792,4.262,0,0,0,0,0,4.2557,4.2592,4.2596,4.2655,4.2664,4.2659,4.2677,4.2666,4.2682,4.2688,4.2693,4.271,4.2742,4.2763,4.2792,4.2864,4.2867,4.2898,4.2909,4.2918,4.2926,4.2965,4.2979,4.2828,4.2828,4.2827,0,0,4.2598,4.2606,4.2629,4.2666,4.2677,4.2714,4.2665,4.2705,4.2732,4.2694,4.2748,4.2752,4.277,4.2834,4.2863,4.2841,4.2968,4.2926,4.2933,4.2936,4.2973,4.2987,4.3,4.2832,4.2831,4.283,0,0,4.2692,4.2702,4.2752,4.2764,4.2782,4.2778,4.279,4.2802,4.2804,4.2857,4.2829,4.2861,4.2916,4.293,4.2944,4.3044,4.3021,4.3054,4.3111,4.3149,4.3161,4.3171,4.3207,4.3221,4.3062,4.3062,4.3062,0,4.2741,4.2795,4.278,4.2823,4.284,4.2807,4.2858,4.2871,4.2897,4.291,4.2885,4.2953,4.2962,4.303,4.3055,4.3067,4.3081,4.3052,4.316,4.3171,4.318,4.3215,4.3228,4.3066,4.3065,4.3065,4.3065,0,4.2854,4.2892,4.293,4.2957,4.2979,4.3025,4.3018,4.3041,4.3028,4.3027,4.3082,4.3092,4.3123,4.3138,4.3126,4.3205,4.319,4.3163,4.3118,4.3199,4.3231,4.3244,4.3071,4.307,4.3069,4.3068,0,0,4.2983,4.3001,4.3016,4.3028,4.3045,4.3075,4.312,4.3151,4.3171,4.3191,4.3228,4.3276,4.3251,4.3267,4.3256,4.329,4.3369,4.3258,4.3259,4.3279,4.3457,4.3477,4.3493,4.3354,4.3357,4.3358,4.3456,0,4.3077,4.3156,4.3144,4.322,4.3255,4.3225,4.3265,4.328,4.328,4.331,4.3311,4.3345,4.3309,4.3319,4.3351,4.3353,4.3405,4.3345,4.3389,4.3391,4.3386,4.3509,4.3531,4.3622,4.3468,4.347,4.3472,0,4.3197,4.3222,4.3301,4.3314,4.3328,4.3364,4.3392,4.3421,4.3437,4.3435,4.3454,4.3437,4.3482,4.3437,4.3499,4.346,4.3477,4.348,4.3484,4.3487,4.3436,4.3517,4.3651,4.3665,4.3491,4.3489,4.3488,0,4.3284,4.3337,4.3391,4.3402,4.3418,4.3444,4.3452,4.3467,4.3486,4.351,4.3522,4.3551,4.3567,4.359,4.3581,4.3549,4.3646,4.3599,4.3646,4.3646,4.3668,4.3666,4.3807,4.3679,4.3679,4.3678,4.3678,0,4.339,4.344,4.343,4.3464,4.3519,4.3505,4.356,4.3564,4.3578,4.3612,4.3587,4.362,4.3606,4.3638,4.3631,4.3684,4.3692,4.3691,4.3689,4.3694,4.3694,4.3705,4.3698,4.3682,4.3681,4.368,4.368,0,4.3496,4.3492,4.3549,4.356,4.3564,4.3604,4.3613,4.3645,4.3644,4.3687,4.3697,4.3695,4.3731,4.3724,4.3764,4.376,4.3826,4.3816,4.3821,4.3818,4.3865,4.3861,4.4018,4.4037,4.3897,4.3898,4.3899,0,4.3564,4.3602,4.3618,4.3639,4.3649,4.3683,4.3703,4.3691,4.3712,4.3735,4.3764,4.3798,4.3824,4.3883,4.3885,4.3916,4.3906,4.3959,4.3911,4.3914,4.3907,4.3905,4.3909,4.3969,4.397,4.3972,4.3973,0,4.3686,4.3682,4.3712,4.3741,4.3766,4.3788,4.3808,4.3827,4.3816,4.3842,4.3879,4.3899,4.394,4.3974,4.4003,4.4011,4.399,4.3988,4.4,4.4005,4.4007,4.4007,4.3847,4.3984,4.3983,4.3982,4.3982,4.3981,4.3776,4.3808,4.3824,4.3858,4.3872,4.3891,4.3922,4.3925,4.3955,4.3988,4.3979,4.402,4.4037,4.4073,4.4084,4.4117,4.4097,4.4115,4.4119,4.4124,4.413,4.4002,4.4122,4.4122,4.4121,4.4121,4.4121,0,4.3897,4.3906,4.3937,4.3966,4.3993,4.3972,4.3993,4.4017,4.4054,4.4071,4.4098,4.414,4.4173,4.4178,4.421,4.4235,4.4226,4.4243,4.4241,4.4244,4.4146,4.4132,4.425,4.425,4.425,4.425,4.425,4.425,4.3963,4.4017,4.4015,4.4076,4.4084,4.4125,4.4139,4.4157,4.417,4.4219,4.4246,4.425,4.4262,4.4294,4.4324,4.4324,4.4337,4.4358,4.4355,4.4263,4.4251,4.4238,4.4225,4.4361,4.4361,4.4451,4.4451,4.4452]},{"header":{"parameterUnit":"m.s-1","parameterCategory":1,"la1":30.2991,"la2":30.254,"lo1":-89.0895,"lo2":-89.0444,"dy":0.0017,"dx":0.0017,"nx":28,"ny":28,"refTime":"2023-08-08T21:00:00:Z","depth":0,"parameterNumber":3,"parameterNumberName":"V-component_of_WINDS"},"data":[0,0,0,0,0,0,0,0,0,0,0,0,0,0,0,0,0,0,0,0,0,0,0,0,0,0,0,0,0,0,0,0,0,0,0,0,0,0,0,0,0,0,0,0,0,0,0,0,0,0,0,0,0,0,0,0,0,0,1.5588,1.5588,0,1.5587,1.5587,1.5587,1.5578,1.5577,1.5577,1.5577,1.5576,1.5576,1.5576,0,0,0,0,0,0,0,0,0,0,0,0,0,1.558,1.558,1.5588,1.5588,1.5588,1.5587,1.5587,1.5587,1.5578,1.5577,1.5577,1.5577,1.5576,1.5576,1.5576,0,0,0,0,0,0,0,0,0,0,0,0,0,1.5582,1.558,1.5588,1.5583,1.5583,1.5587,1.5587,1.5587,1.5578,1.5577,1.5577,1.5577,1.5576,1.5576,1.5576,1.5585,0,0,1.5577,1.5577,0,0,0,0,0,0,0,0,1.5582,1.5582,1.5584,1.5583,1.5583,1.5582,1.5584,1.5586,1.5578,1.558,1.5577,1.5577,1.5578,1.5578,1.5579,1.5585,1.5585,1.5577,1.5577,1.5577,1.5577,0,0,0,0,0,0,0,1.5582,1.5582,1.5588,1.5584,1.5583,1.5581,1.5581,1.5584,1.5581,1.5579,1.5579,1.5579,1.5578,1.5579,1.5579,1.5585,1.5577,1.5577,1.5577,1.5578,1.5597,1.5598,0,0,0,0,0,0,1.5582,1.5582,1.5588,1.5588,1.5581,1.5581,1.5581,1.5583,1.5581,1.558,1.5579,1.5578,1.5578,1.5578,1.5579,1.5588,1.5577,1.5578,1.5578,1.5597,1.5597,1.5598,0,0,0,0,0,0,1.5582,1.5583,1.5588,1.5585,1.5585,1.5582,1.5584,1.5583,1.5584,1.5581,1.558,1.5581,1.5578,1.5578,1.5583,1.5588,1.5578,1.5578,1.5596,1.5597,1.5597,1.5607,0,0,0,0,0,0,1.5582,1.5583,1.5586,1.5585,1.5585,1.5593,1.5584,1.5583,1.5584,1.5583,1.5582,1.5581,1.5578,1.5583,1.5584,1.5588,1.5578,1.5596,1.5597,1.5597,1.5607,1.5608,1.561,0,0,0,0,0,1.5582,1.5589,1.5587,1.5587,1.559,1.5593,1.5593,1.5589,1.5585,1.5588,1.5586,1.5581,1.5587,1.5584,1.5584,1.5589,1.5596,1.5597,1.5597,1.5606,1.5608,1.561,0,0,0,0,0,0,1.5592,1.5589,1.5586,1.5593,1.5593,1.5591,1.5595,1.5591,1.5593,1.5592,1.5587,1.5586,1.5592,1.5591,1.5587,1.5597,1.5591,1.5592,1.5597,1.5599,1.56,1.56,1.5578,0,0,0,0,0,1.5595,1.5598,1.5595,1.5602,1.5602,1.5599,1.56,1.5597,1.5597,1.5597,1.5595,1.5595,1.5596,1.5598,1.5599,1.5607,1.5606,1.561,1.5612,1.5613,1.5614,1.5617,1.5618,1.56,1.56,1.56,0,0,1.5601,1.56,1.5602,1.5604,1.5604,1.5606,1.5599,1.5602,1.5604,1.5597,1.5602,1.56,1.56,1.5606,1.5608,1.5605,1.5618,1.5614,1.5615,1.5615,1.5618,1.5619,1.5621,1.5601,1.5601,1.5601,0,0,1.5614,1.5614,1.5619,1.5619,1.5618,1.5616,1.5617,1.5615,1.5614,1.5619,1.5613,1.5615,1.5619,1.5618,1.5618,1.563,1.5626,1.5631,1.5639,1.5641,1.5643,1.5644,1.5648,1.5649,1.5632,1.5632,1.5632,0,1.5622,1.5626,1.5622,1.5626,1.5626,1.562,1.5625,1.5625,1.5625,1.5625,1.5622,1.5625,1.5625,1.563,1.5633,1.5634,1.5634,1.5631,1.5643,1.5644,1.5645,1.5649,1.565,1.5633,1.5633,1.5632,1.5632,0,1.5635,1.5638,1.5642,1.5642,1.5644,1.5648,1.5644,1.5646,1.5643,1.564,1.5645,1.5643,1.5644,1.5645,1.5642,1.565,1.5648,1.5644,1.5638,1.5648,1.5651,1.5652,1.5633,1.5633,1.5633,1.5633,0,0,1.5654,1.5652,1.5653,1.5653,1.5652,1.5654,1.5657,1.5658,1.5659,1.566,1.5662,1.5665,1.5661,1.5661,1.5658,1.5661,1.5669,1.5656,1.5656,1.5658,1.5677,1.5679,1.5681,1.5667,1.5667,1.5667,1.5677,0,1.5666,1.5672,1.5668,1.5675,1.5677,1.5671,1.5674,1.5674,1.5672,1.5673,1.5671,1.5673,1.5668,1.5668,1.567,1.5668,1.5673,1.5667,1.5668,1.5668,1.5668,1.5683,1.5685,1.5694,1.5678,1.5678,1.5678,0,1.568,1.5681,1.5687,1.5685,1.5686,1.5689,1.5689,1.5691,1.569,1.5688,1.5688,1.5684,1.5687,1.5681,1.5685,1.5681,1.5681,1.568,1.568,1.568,1.5673,1.5682,1.5697,1.5698,1.568,1.568,1.568,0,1.5692,1.5695,1.5699,1.5699,1.5696,1.5698,1.5698,1.5696,1.5697,1.5697,1.5697,1.5697,1.5698,1.5698,1.5694,1.569,1.5698,1.5692,1.5696,1.5696,1.5697,1.5697,1.5713,1.5699,1.5699,1.5699,1.5699,0,1.5705,1.5709,1.5704,1.5706,1.5711,1.5706,1.5711,1.5709,1.5708,1.571,1.5705,1.5707,1.5702,1.5703,1.57,1.5703,1.5703,1.5701,1.57,1.5701,1.5701,1.5701,1.57,1.5699,1.5699,1.5699,1.5699,0,1.5719,1.5715,1.5719,1.5717,1.5716,1.572,1.5717,1.5719,1.5717,1.5719,1.5719,1.5716,1.5717,1.5713,1.5713,1.5711,1.5716,1.5714,1.5716,1.5715,1.5719,1.5718,1.5734,1.5736,1.5722,1.5722,1.5722,0,1.5727,1.573,1.5727,1.5728,1.5727,1.5729,1.5729,1.5725,1.5726,1.5725,1.5727,1.5727,1.5727,1.5729,1.5726,1.5726,1.5724,1.573,1.5724,1.5725,1.5723,1.5723,1.5723,1.5731,1.5731,1.5731,1.5731,0,1.5741,1.5739,1.574,1.574,1.5741,1.5741,1.574,1.5741,1.5737,1.5737,1.5738,1.5739,1.5739,1.5739,1.5739,1.5737,1.5733,1.5733,1.5734,1.5734,1.5735,1.5734,1.5718,1.5732,1.5732,1.5732,1.5732,1.5732,1.5751,1.5753,1.5752,1.5753,1.5752,1.5752,1.5753,1.5751,1.5752,1.5752,1.5749,1.575,1.5749,1.5748,1.5747,1.5747,1.5745,1.5746,1.5746,1.5747,1.5747,1.5736,1.5747,1.5747,1.5747,1.5747,1.5747,0,1.5765,1.5763,1.5764,1.5764,1.5764,1.5761,1.576,1.5761,1.5762,1.5761,1.5761,1.5762,1.5762,1.5759,1.5759,1.576,1.5758,1.576,1.5759,1.5759,1.575,1.5749,1.5761,1.5761,1.5761,1.5761,1.5761,1.5761,1.5772,1.5775,1.5773,1.5775,1.5774,1.5775,1.5775,1.5774,1.5773,1.5774,1.5774,1.5773,1.5771,1.577,1.577,1.5769,1.5769,1.5771,1.577,1.5761,1.576,1.5758,1.5757,1.5772,1.5772,1.5779,1.5779,1.5779]}]]